Weather Roundup
Issued by NWS Corpus Christi, TX

Home | Current Version | Previous Version | Text Only | Print | Product List | Glossary On
Versions: 1 2 3 4 5 6 7 8 9 10 11 12 13 14 15 16 17 18 19 20 21 22 23 24 25 26 27 28 29 30 31 32 33 34 35 36 37 38 39 40 41 42 43 44 45 46 47 48 49 50
000
ASUS44 KCRP 231810
HRRCRP

SOUTH TEXAS REGIONAL WEATHER ROUNDUP
NATIONAL WEATHER SERVICE CORPUS CHRISTI TX
100 PM CDT SAT SEP 23 2017


TXZ229>244-231900-
...CORPUS CHRISTI AREA OBSERVATIONS...

CITY           SKY/WX    TMP DP  RH WIND       PRES   REMARKS
CORPUS CHRISTI PTSUNNY   89  74  60 E17       29.87F HX  98
NAS CORPUS CHR PTSUNNY   90  76  63 SE14      29.87F HX 101
ROCKPORT       NOT AVBL
KINGSVILLE ARP FAIR      92  73  52 E10G18    29.86F HX 100
KINGSVILLE NAS PTSUNNY   94  73  50 E13G23    29.85F HX 103
ALICE          NOT AVBL
$$

...VICTORIA AREA OBSERVATIONS...

CITY           SKY/WX    TMP DP  RH WIND       PRES   REMARKS
PORT LAVACA    PTSUNNY   83  71  68 S5        29.91S
VICTORIA       MOSUNNY   87  74  64 E9        29.90F HX  95
BEEVILLE       PTSUNNY   87  66  49 E9        29.88F
PLEASANTON     PTSUNNY   89  66  46 SE8       29.90F HX  91
SAN ANTONIO    PTSUNNY   88  68  51 SE13G24   29.92F HX  91
$$

...LAREDO AREA OBSERVATIONS...

CITY           SKY/WX    TMP DP  RH WIND       PRES   REMARKS
LAREDO         NOT AVBL
DEL RIO        NOT AVBL
MCALLEN        MOSUNNY   93  70  46 E10       29.83F HX  99
HEBBRONVILLE   SUNNY     90  65  43 SE10G17   29.87F HX  91
$$

...OTHER TEXAS OBSERVATIONS...

CITY           SKY/WX    TMP DP  RH WIND       PRES   REMARKS
BROWNSVILLE    NOT AVBL
HOUSTON        MOSUNNY   89  70  53 S10G17    29.93F HX  94
COL. STATION   NOT AVBL
AUSTIN         PTSUNNY   90  72  55 E9        29.92F HX  96
WACO           MOSUNNY   90  65  43 SE12      29.94F HX  92
FORT WORTH     PTSUNNY   90  67  46 S14       29.93F HX  93
WICHITA FALLS  SUNNY     89  63  41 S23G30    29.93F HX  90
LUBBOCK        CLOUDY    75  63  66 S20G28    29.96S
EL PASO        MOSUNNY   79  63  57 S6        29.86F
$$

...MARINE OBSERVATIONS...

STATION/POSITION TIME  SKY/WX   TEMP    WIND        PRES    VSBY  WAVE   SWELL
                                AIR SEA DIR/SP/G                  HT/PER HT/PER
                 (UTC)          (F)     (DEG/KT/KT) (MB)    (MI)  (FT/S) (FT/S)
PORT ARANSAS     NOT AVBL
BUOY 90 E PORT A 1750            83 84   80/ 12/ 14 1012.2F         3/ 5   2/ 6
BUOY 200 E PT IS 1750            84 85  100/ 10/ 12 1011.9F         2/ 5   2/ 5
BUOY 15 E GALVES 1650            82 83   90/ 10/ 12 1013.9          2/ 5   2/ 5
$$




USA.gov is the U.S. government's official web portal to all federal, state and local government web resources and services.